Regional Weather Roundup
Issued by NWS State College, PA

Home | Current Version | Previous Version | Text Only | Print | Product List | Glossary On
Versions: 1 2 3 4 5 6 7 8 9 10 11 12 13 14 15 16 17 18 19 20 21 22 23 24 25 26 27 28 29 30 31 32 33 34 35 36 37 38 39 40 41 42 43 44 45 46 47 48 49 50
000
ASUS41 KCTP 280310
RWRCTP

REGIONAL WEATHER ROUNDUP
NATIONAL WEATHER SERVICE STATE COLLEGE PA
1100 PM EDT WED AUG 27 2014

Note: "fair" indicates few or no clouds below 12,000 feet with no
significant weather and/or obstructions to visibility.

* = STATION THAT DOES NOT REPORT PRECIPITATION /E.G. RAIN...SNOW...ETC/
    THUNDER OR FOG.

PAZ002>004-007>009-013>016-020>023-029>032-280400-
WESTERN PENNSYLVANIA

CITY           SKY/WX    TMP DP  RH WIND       PRES   REMARKS
ERIE           CLEAR     68  55  63 N9G18     30.09R
MEADVILLE      PTCLDY    63  56  78 N6        30.10R
FRANKLIN*      PTCLDY    63  55  77 N3        30.11R
NEW CASTLE     FAIR      64  61  90 CALM      30.11R
BEAVER COUNTY  NOT AVBL
BUTLER*        MOCLDY    66  59  77 N6        30.09S
PITTSBURGH INT MOCLDY    70  62  76 N13       30.08R
PITTSBURGH     MOCLDY    70  63  78 N7        30.06R
INDIANA*       CLOUDY    70  64  83 N3        30.09F
LATROBE        CLOUDY    70  70 100 CALM      30.06R
WASHINGTON CO* CLOUDY    68  64  88 NW6       30.08R
$$

PAZ004>006-010>012-017>019-024>028-033>037-041-042-045-046-049>053-280400-
CENTRAL PENNSYLVANIA

CITY           SKY/WX    TMP DP  RH WIND       PRES   REMARKS
BRADFORD       CLEAR     61  55  81 W5        30.08S
DUBOIS         PTCLDY    64  60  87 N7        30.07S
CLEARFIELD     PTCLDY    67  62  84 N6        30.05S
JOHNSTOWN      CLOUDY    68  66  93 NW10      30.08R FOG
ALTOONA        MOCLDY    72  68  87 NW8       30.03S
STATE COLLEGE  PTCLDY    73  65  76 NW8       30.01R
WILLIAMSPORT   CLOUDY    77  62  59 N6        29.97R
SELINSGROVE    CLOUDY    71  68  90 CALM      29.96R
FT INDIANTOWN  PTCLDY    74  74  99 VRB5      29.94R
CAPITAL CITY   MOCLDY    77  70  79 W7        29.92S
HARRISBURG     MOCLDY    79  71  76 NE5       29.91S
YORK           PTCLDY    74  70  87 NW5       29.93R
$$

PAZ038>040-043-044-047-048-054-055-060>062-067>071-280400-
EASTERN PENNSYLVANIA

CITY           SKY/WX    TMP DP  RH WIND       PRES   REMARKS
SCRANTON       MOCLDY    74  63  68 N7        29.98R
MOUNT POCONO   MOCLDY    69  65  86 N9        29.99S
ALLENTOWN      MOCLDY    77  70  79 N5        29.91R
QUAKERTOWN*    PTCLDY    73  70  88 CALM      29.92S
READING        MOCLDY    78  67  68 VRB3      29.91R
LANCASTER      PTCLDY    76  68  76 CALM      29.92S
COATESVILLE    PTCLDY    73  72  94 NW5       29.93F
POTTSTOWN      PTCLDY    76  69  79 CALM      29.92S
BLUE BELL      PTCLDY    77  68  73 CALM      29.90R
DOYLESTOWN     PTCLDY    77  68  73 SW5       29.89F
WILLOW GROVE   NOT AVBL
NORTH PHILA    CLEAR     81  65  58 W9        29.90S
PHILADELPHIA   PTCLDY    79  67  66 SW8       29.90S
$$



USA.gov is the U.S. government's official web portal to all federal, state and local government web resources and services.